Skip Page Navigation
NASA JPL Caltech
NASA Logo - Jet Propulsion Laboratory + View the NASA Portal
+ Center for Near-Earth Object Studies
JPL Home Earth Solar System Stars & Galaxies Technology
JPL Solar System Dynamics
BODIES ORBITS EPHEMERIDES TOOLS PHYSICAL DATA DISCOVERY FAQ SITE MAP
JPL Small-Body Database Browser
Search: [ help ]  
214646 (2006 SA67)
Classification: Outer Main-belt Asteroid          SPK-ID: 2214646
Ephemeris | Orbit Diagram | Orbital Elements | Mission Design | Physical Parameters | Discovery Circumstances | Close-Approach Data ]

[ show orbit diagram ]
Orbital Elements at Epoch 2459000.5 (2020-May-31.0) TDB
Reference: JPL 14 (heliocentric ecliptic J2000)
 Element Value Uncertainty (1-sigma)   Units 
e .1564978114679434 5.2241e-08  
a 3.20445904497182 3.2541e-08 au
q 2.702968217495074 1.6743e-07 au
i 1.084277928021637 7.4669e-06 deg
node 168.943360641828 0.00026565 deg
peri 315.721532606954 0.0002668 deg
M 37.21679898137803 2.1605e-05 deg
tp 2458783.895721458029
(2019-Oct-27.39572146)
0.00012611 TDB
period 2095.224264562002
5.74
3.1915e-05
8.738e-08
d
yr
n .1718193159982597 2.6172e-09 deg/d
Q 3.705949872448566 3.7634e-08 au
  Orbit Determination Parameters
   # obs. used (total)      309  
   data-arc span      6265 days (17.15 yr)  
   first obs. used      2003-02-26  
   last obs. used      2020-04-22  
   planetary ephem.      DE431  
   SB-pert. ephem.      SB431-N16  
   condition code      0  
   norm. resid. RMS      .61762  
   source      ORB  
   producer      Otto Matic  
   solution date      2020-May-21 09:09:02  

Additional Information
 Earth MOID = 1.7186 au 
 Jupiter MOID = 1.3684 au 
 T_jup = 3.174 
[ hide covariance matrix ]
Orbital Elements at Epoch 2457360.5 (2015-Dec-04.0) TDB
Reference: JPL 14 (heliocentric ecliptic J2000)
 Element Value Uncertainty (1-sigma)   Units 
e .1577813147029463 5.23e-08  
q 2.697531728706571 1.6764e-07 au
tp 2456689.673456625275
(2014-Feb-01.17345663)
0.00013245 TDB
node 168.9674275415568 0.00026582 deg
peri 315.8609464171163 0.00026694 deg
i 1.083876132601436 7.4683e-06 deg
  Orbit Determination Parameters
   # obs. used (total)      309  
   data-arc span      6265 days (17.15 yr)  
   first obs. used      2003-02-26  
   last obs. used      2020-04-22  
   planetary ephem.      DE431  
   SB-pert. ephem.      SB431-N16  
   condition code      0  
   norm. resid. RMS      .61762  
   source      ORB  
   producer      Otto Matic  
   solution date      2020-May-21 09:09:02  

Additional Information
 Jupiter MOID = 1.3684 au 
 T_jup = 3.174 
Orbit Covariance (6×6)
  e q tp node peri i
e 2.735303360838468E-15 -8.652106379447503E-15 2.450358597494573E-12 -1.620946885312752E-14 4.879550083298259E-13 -4.492445803059614E-16
q -8.652106379447503E-15 2.810399003398093E-14 -9.139320891946659E-12 5.251560437832517E-14 -1.750159115937066E-12 1.484102235177494E-15
tp 2.450358597494573E-12 -9.139320891946659E-12 1.754303201158805E-8 -3.793825780073178E-11 3.260624180230466E-9 -2.761264417988069E-13
node -1.620946885312752E-14 5.251560437832517E-14 -3.793825780073178E-11 7.065788440498167E-8 -7.06513780062569E-8 2.243117449769638E-10
peri 4.879550083298259E-13 -1.750159115937066E-12 3.260624180230466E-9 -7.06513780062569E-8 7.125878300970718E-8 -2.243064228231707E-10
i -4.492445803059614E-16 1.484102235177494E-15 -2.761264417988069E-13 2.243117449769638E-10 -2.243064228231707E-10 5.577513950402207E-11

Ephemeris | Orbit Diagram | Orbital Elements | Mission Design | Physical Parameters | Discovery Circumstances | Close-Approach Data ]

Physical Parameter Table
Parameter Symbol Value Units Sigma Reference Notes
absolute magnitude H 16.1   n/a MPO470304  

214646 (2006 SA67)          Discovered 2006-Sep-19 by Spacewatch at Kitt Peak
Reference: 20090509/Numbers.arcLast Updated: 2009-05-11

[ show close-approach data ]
Ephemeris | Orbit Diagram | Orbital Elements | Mission Design | Physical Parameters | Discovery Circumstances | Close-Approach Data ]
ABOUT SSD CREDITS/AWARDS PRIVACY/COPYRIGHT GLOSSARY LINKS
FirstGov 2020-Nov-30 07:54 UT
(server date/time)  
NASA Home Page
Site Manager:   Ryan S. Park
Webmaster  Alan B. Chamberlin